When you browse on this site, cookies collect data to enhance your experience and personalize the content and advertising you see.
Visit our Privacy Policy to learn more. By continuing to use the site, you agree to this use of cookies and data.
  • In Österreich
  • Länderverzeichnis
  • Für 7 Tage
  • Wassertemperatur
  • Wetterkarte
  • News
  • Widgets
  • user-avatar
    Anmelden

    Stündliche Wetter Oruro

    Heute, 20 Oktober, Sonntag

    Zeit Temperatur Niederschläge Wind Luftdruck Luftfeuchtigkeit
    00:00 +5°C° 0 mm 3 m/S 476 mmHg 77%
    01:00 +7°C° 0 mm 3 m/S 476 mmHg 74%
    02:00 +7°C° 0 mm 2 m/S 476 mmHg 69%
    03:00 +7°C° 0 mm 2 m/S 476 mmHg 70%
    04:00 +8°C° 0 mm 1 m/S 476 mmHg 71%
    05:00 +8°C° 0 mm 1 m/S 476 mmHg 72%
    06:00 +8°C° 0 mm 1 m/S 476 mmHg 69%
    07:00 +8°C° 0 mm 1 m/S 477 mmHg 66%
    08:00 +9°C° 0 mm 1 m/S 477 mmHg 68%
    09:00 +9°C° 0 mm 2 m/S 478 mmHg 58%
    10:00 +12°C° 0 mm 2 m/S 478 mmHg 49%
    11:00 +12°C° 0 mm 3 m/S 479 mmHg 40%
    12:00 +13°C° 0 mm 3 m/S 479 mmHg 35%
    13:00 +14°C° 0 mm 3 m/S 479 mmHg 29%
    14:00 +16°C° 0 mm 3 m/S 479 mmHg 24%
    15:00 +17°C° 0 mm 4 m/S 479 mmHg 21%
    16:00 +17°C° 0 mm 4 m/S 479 mmHg 18%
    17:00 +17°C° 0 mm 4 m/S 478 mmHg 15%
    18:00 +15°C° 0 mm 4 m/S 478 mmHg 18%
    19:00 +14°C° 0 mm 3 m/S 478 mmHg 21%
    20:00 +13°C° 0 mm 3 m/S 478 mmHg 25%
    21:00 +12°C° 0 mm 4 m/S 478 mmHg 26%
    22:00 +10°C° 0 mm 4 m/S 477 mmHg 27%
    23:00 +8°C° 0 mm 5 m/S 477 mmHg 28%

    Morgen, 21 Oktober, Montag

    Zeit Temperatur Niederschläge Wind Luftdruck Luftfeuchtigkeit
    00:00 +7°C° 0 mm 4 m/S 476 mmHg 30%
    01:00 +8°C° 0 mm 3 m/S 476 mmHg 31%
    02:00 +7°C° 0 mm 3 m/S 475 mmHg 33%
    03:00 +6°C° 0 mm 2 m/S 475 mmHg 34%
    04:00 +6°C° 0 mm 2 m/S 475 mmHg 35%
    05:00 +6°C° 0 mm 1 m/S 474 mmHg 37%
    06:00 +7°C° 0 mm 1 m/S 475 mmHg 32%
    07:00 +8°C° 0 mm 1 m/S 476 mmHg 28%
    08:00 +9°C° 0 mm 1 m/S 477 mmHg 23%
    09:00 +10°C° 0 mm 2 m/S 477 mmHg 19%
    10:00 +12°C° 0 mm 2 m/S 478 mmHg 16%
    11:00 +14°C° 0 mm 2 m/S 479 mmHg 12%
    12:00 +15°C° 0 mm 2 m/S 479 mmHg 12%
    13:00 +16°C° 0 mm 3 m/S 479 mmHg 11%
    14:00 +17°C° 0 mm 3 m/S 479 mmHg 11%
    15:00 +17°C° 0 mm 3 m/S 479 mmHg 11%
    16:00 +17°C° 0 mm 3 m/S 478 mmHg 10%
    17:00 +17°C° 0 mm 3 m/S 478 mmHg 10%
    18:00 +16°C° 0 mm 3 m/S 478 mmHg 13%
    19:00 +15°C° 0 mm 2 m/S 478 mmHg 15%
    20:00 +14°C° 0 mm 2 m/S 478 mmHg 18%
    21:00 +13°C° 0 mm 2 m/S 477 mmHg 28%
    22:00 +12°C° 0 mm 2 m/S 477 mmHg 37%
    23:00 +11°C° 0 mm 1 m/S 477 mmHg 47%

    übermorgen, 22 Oktober, Dienstag

    Zeit Temperatur Niederschläge Wind Luftdruck Luftfeuchtigkeit
    00:00 +10°C° 0 mm 1 m/S 476 mmHg 47%
    01:00 +9°C° 0 mm 1 m/S 476 mmHg 48%
    02:00 +9°C° 0 mm 1 m/S 475 mmHg 48%
    03:00 +8°C° 0 mm 1 m/S 475 mmHg 48%
    04:00 +7°C° 0 mm 1 m/S 474 mmHg 47%
    05:00 +7°C° 0 mm 1 m/S 474 mmHg 47%
    06:00 +8°C° 0 mm 1 m/S 475 mmHg 41%
    07:00 +8°C° 0 mm 1 m/S 476 mmHg 36%
    08:00 +9°C° 0 mm 1 m/S 477 mmHg 31%
    09:00 +11°C° 0 mm 1 m/S 477 mmHg 26%
    10:00 +12°C° 0 mm 2 m/S 478 mmHg 22%
    11:00 +13°C° 0 mm 3 m/S 479 mmHg 17%
    12:00 +14°C° 0 mm 3 m/S 479 mmHg 14%
    13:00 +15°C° 0 mm 4 m/S 479 mmHg 11%
    14:00 +17°C° 0 mm 5 m/S 479 mmHg 9%
    15:00 +17°C° 0 mm 5 m/S 479 mmHg 8%
    16:00 +16°C° 0 mm 5 m/S 478 mmHg 8%
    17:00 +16°C° 0 mm 5 m/S 478 mmHg 7%
    18:00 +15°C° 0 mm 4 m/S 478 mmHg 10%
    19:00 +14°C° 0 mm 3 m/S 477 mmHg 12%
    20:00 +13°C° 0 mm 2 m/S 477 mmHg 14%
    21:00 +12°C° 0 mm 2 m/S 477 mmHg 17%
    22:00 +10°C° 0 mm 3 m/S 476 mmHg 20%
    23:00 +10°C° 0 mm 3 m/S 476 mmHg 22%

    23 Oktober, Mittwoch

    Zeit Temperatur Niederschläge Wind Luftdruck Luftfeuchtigkeit
    00:00 +9°C° 0 mm 3 m/S 476 mmHg 22%
    01:00 +8°C° 0 mm 3 m/S 475 mmHg 22%
    02:00 +7°C° 0 mm 2 m/S 474 mmHg 22%
    03:00 +6°C° 0 mm 2 m/S 474 mmHg 25%
    04:00 +5°C° 0 mm 2 m/S 473 mmHg 27%
    05:00 +4°C° 0 mm 2 m/S 473 mmHg 29%
    06:00 +6°C° 0 mm 1 m/S 474 mmHg 26%
    07:00 +7°C° 0 mm 1 m/S 475 mmHg 23%
    08:00 +9°C° 0 mm 1 m/S 476 mmHg 20%
    09:00 +9°C° 0 mm 2 m/S 477 mmHg 16%
    10:00 +12°C° 0 mm 2 m/S 478 mmHg 13%
    11:00 +14°C° 0 mm 2 m/S 479 mmHg 10%
    12:00 +14°C° 0 mm 3 m/S 479 mmHg 9%
    13:00 +16°C° 0 mm 3 m/S 479 mmHg 8%
    14:00 +17°C° 0 mm 3 m/S 479 mmHg 8%
    15:00 +17°C° 0 mm 3 m/S 479 mmHg 7%
    16:00 +17°C° 0 mm 3 m/S 478 mmHg 7%
    17:00 +17°C° 0 mm 3 m/S 478 mmHg 7%
    18:00 +15°C° 0 mm 4 m/S 477 mmHg 13%
    19:00 +13°C° 0 mm 4 m/S 477 mmHg 19%
    20:00 +12°C° 0 mm 4 m/S 476 mmHg 26%
    21:00 +11°C° 0 mm 4 m/S 476 mmHg 35%
    22:00 +10°C° 0 mm 3 m/S 476 mmHg 45%
    23:00 +9°C° 0 mm 2 m/S 476 mmHg 55%

    24 Oktober, Donnerstag

    Zeit Temperatur Niederschläge Wind Luftdruck Luftfeuchtigkeit
    00:00 +9°C° 0 mm 2 m/S 475 mmHg 59%
    01:00 +8°C° 0 mm 2 m/S 475 mmHg 64%
    02:00 +8°C° 0 mm 1 m/S 474 mmHg 68%
    03:00 +7°C° 0 mm 2 m/S 474 mmHg 71%
    04:00 +6°C° 0 mm 2 m/S 474 mmHg 74%
    05:00 +6°C° 0 mm 2 m/S 474 mmHg 76%
    06:00 +7°C° 0 mm 2 m/S 475 mmHg 69%
    07:00 +8°C° 0 mm 2 m/S 476 mmHg 61%
    08:00 +9°C° 0 mm 2 m/S 477 mmHg 54%
    09:00 +12°C° 0 mm 2 m/S 478 mmHg 43%
    10:00 +13°C° 0 mm 2 m/S 479 mmHg 33%
    11:00 +15°C° 0 mm 1 m/S 480 mmHg 23%
    12:00 +16°C° 0 mm 1 m/S 480 mmHg 19%
    13:00 +18°C° 0 mm 1 m/S 480 mmHg 16%
    14:00 +19°C° 0 mm 1 m/S 480 mmHg 13%
    15:00 +17°C° 0 mm 3 m/S 479 mmHg 19%
    16:00 +16°C° 0 mm 5 m/S 478 mmHg 24%
    17:00 +15°C° 0 mm 8 m/S 477 mmHg 30%
    18:00 +14°C° 0 mm 7 m/S 477 mmHg 32%
    19:00 +13°C° 0 mm 6 m/S 477 mmHg 35%
    20:00 +11°C° 0 mm 6 m/S 477 mmHg 37%
    21:00 +12°C° 0 mm 5 m/S 477 mmHg 42%
    22:00 +11°C° 0 mm 4 m/S 477 mmHg 47%
    23:00 +10°C° 0 mm 3 m/S 477 mmHg 53%

    25 Oktober, Freitag

    Zeit Temperatur Niederschläge Wind Luftdruck Luftfeuchtigkeit
    00:00 +10°C° 0 mm 2 m/S 477 mmHg 57%
    01:00 +9°C° 0 mm 2 m/S 476 mmHg 60%
    02:00 +9°C° 0 mm 1 m/S 476 mmHg 64%
    03:00 +8°C° 0 mm 2 m/S 475 mmHg 67%
    04:00 +7°C° 0 mm 2 m/S 475 mmHg 70%
    05:00 +7°C° 0 mm 2 m/S 475 mmHg 73%
    06:00 +8°C° 0 mm 2 m/S 476 mmHg 67%
    07:00 +8°C° 0 mm 2 m/S 476 mmHg 61%
    08:00 +9°C° 0 mm 2 m/S 477 mmHg 55%
    09:00 +12°C° 0 mm 2 m/S 478 mmHg 46%
    10:00 +14°C° 0 mm 2 m/S 479 mmHg 36%
    11:00 +16°C° 0 mm 2 m/S 480 mmHg 27%
    12:00 +17°C° 0 mm 2 m/S 480 mmHg 23%
    13:00 +18°C° 0 mm 2 m/S 480 mmHg 19%
    14:00 +19°C° 0 mm 2 m/S 480 mmHg 14%
    15:00 +18°C° 0 mm 3 m/S 480 mmHg 18%
    16:00 +18°C° 0 mm 4 m/S 479 mmHg 22%
    17:00 +17°C° 0 mm 4 m/S 479 mmHg 26%
    18:00 +15°C° 0.1 mm 5 m/S 478 mmHg 33%
    19:00 +13°C° 0.1 mm 5 m/S 478 mmHg 40%
    20:00 +11°C° 0.1 mm 6 m/S 477 mmHg 47%
    21:00 +10°C° 0 mm 5 m/S 477 mmHg 48%
    22:00 +11°C° 0 mm 4 m/S 477 mmHg 49%
    23:00 +12°C° 0 mm 2 m/S 478 mmHg 50%
    Mehr zeigen